Location: Batang Balui
(2.7000°N, 113.7833°E)
Time: 23:42:00
(UTC+00:00)

CZ-4 DEB - Pass Details

Date: 05 December 2023
Orbit: 686 x 830 km, 98.7° (Epoch: 01 March)

Event Time Altitude Azimuth Distance (km) Brightness Sun altitude
Rises 13:01:06 0° 194° (SSW) 3,223 ? -39.0°
Reaches altitude 10° 13:03:58 10° 210° (SSW) 2,268 ? -39.6°
Enters shadow 13:05:59 18° 232° (SW) 1,787 ? -40.1°
